Regional Weather Roundup
Issued by NWS Jackson, KY

Home | Current Version | Previous Version | Graphics & Text | Print | Product List | Glossary On
Versions: 1 2 3 4 5 6 7 8 9 10 11 12 13 14 15 16 17 18 19 20 21 22 23 24 25 26 27 28 29 30 31 32 33 34 35 36 37 38 39 40 41 42 43 44 45 46 47 48 49 50
259
ASUS43 KJKL 120210
RWRJKL

EAST KENTUCKY HOURLY WEATHER ROUNDUP
NATIONAL WEATHER SERVICE JACKSON KY
900 PM EST THU FEB 11 2016

NOTE: "FAIR" INDICATES FEW OR NO CLOUDS BELOW 12,000 FEET WITH
NO SIGNIFICANT WEATHER AND/OR OBSTRUCTIONS TO VISIBILITY.

* THESE REPORTS ARE NOT UNDER NWS QUALITY CONTROL AND MAY NOT
  REPORT WEATHER SUCH AS PRECIPITATION AND FOG.

KYZ079-080-083-085-087-088-110-112-115-119-120-120300
...EASTERN KENTUCKY...

CITY           SKY/WX    TMP DP  RH WIND       PRES   REMARKS
JACKSON        PTCLDY    23   9  55 CALM      30.25S
LONDON         CLOUDY    27   9  46 N3        30.27R
SOMERSET*      PTCLDY    27  12  54 NE3       30.30R
MONTICELLO*    CLOUDY    27  20  75 N10       30.30R WCI  17
WILLIAMSBURG*  CLOUDY    28  12  50 CALM      30.26S
MIDDLESBORO*   CLEAR     27  20  76 CALM      30.25F
HARLAN APT*      N/A     28  16  59 CALM      30.23S
HAZARD APT*    PTCLDY    23   7  50 CALM      30.26S
BLACK MTN*       N/A     14   7  73 CALM        N/A
BIG SANDY*     PTCLDY    23   8  51 CALM      30.27S
MOREHEAD APT*  PTCLDY    23   7  50 CALM      30.30F
$$

KYZ035-036-041-042-044-050-067-078-099-120300
...CENTRAL KENTUCKY...

CITY           SKY/WX    TMP DP  RH WIND       PRES   REMARKS
MT STERLING*   MOCLDY    23  12  63 E3        30.30S
DANVILLE*      MOCLDY    27  16  63 CALM      30.31R
RICHMOND*      MOCLDY    25  12  58 CALM      30.29R
LEXINGTON      PTCLDY    23  12  62 NE8       30.29R WCI  14
FRANKFORT      PTCLDY    25   9  50 CALM      30.30R
$$

KYZ091>093-OHZ055-061-077-WVZ005-015-034-035-042-120300
...SOUTHERN OHIO/WEST VIRGINIA...

CITY           SKY/WX    TMP DP  RH WIND       PRES   REMARKS
COVINGTON      CLOUDY    20   7  57 N5        30.30S WCI  13
COLUMBUS       CLOUDY    18   7  62 W3        30.30S
DAYTON         CLOUDY    17   8  67 CALM      30.29F
WILMINGTON     CLOUDY    10   3  73 CALM      30.28F
HUNTINGTON       N/A     21   5  50 CALM      30.31R
CHARLESTON       N/A     18   6  59 CALM      30.30R
PINEVILLE*       N/A     15   9  76 MISG      30.27S
BECKLEY          N/A     14   2  58 N3        30.17R
$$

VAZ002-007-008-TNZ017-027-036-066-071-120300
...SOUTHWEST VIRGINIA/EAST TENNESSEE...

CITY           SKY/WX    TMP DP  RH WIND       PRES   REMARKS
BRISTOL        PTCLDY    29  15  56 NW3       30.22S
KNOXVILLE      PTCLDY    33  20  58 NE5       30.23S WCI  29
OAK RIDGE      PTCLDY    33  20  58 NE3       30.25S
CROSSVILLE     CLOUDY    30  20  66 NE3       30.21R
NASHVILLE      PTCLDY    33  21  61 N6        30.28R WCI  28
$$

...KEY TO REMARKS...
VSB - VISIBILITY IN MILES
WCI - WIND CHILL INDEX
HX  - HEAT INDEX

$$




USA.gov is the U.S. government's official web portal to all federal, state and local government web resources and services.